Regional Weather Roundup
Issued by NWS

Home | Current Version | Previous Version | Graphics & Text | Print | Product List | Glossary On
Versions: 1 2 3 4 5 6 7 8 9 10 11 12 13 14 15 16 17 18 19 20 21 22 23 24 25 26 27 28 29 30 31 32 33 34 35 36 37 38 39 40 41 42 43 44 45 46 47 48 49 50
000
ASUS43 KIND 182209
RWRIN

WEATHER ROUNDUP FOR INDIANA
NATIONAL WEATHER SERVICE INDIANAPOLIS IN
600 PM EDT FRI APR 18 2014

NOTE: "FAIR" INDICATES FEW OR NO CLOUDS BELOW 12,000 FEET WITH NO
SIGNIFICANT WEATHER AND/OR OBSTRUCTIONS TO VISIBILITY.

* - STATION DOES NOT REPORT WEATHER SUCH AS PRECIPITATION OR FOG.

+ - STATION NOT QUALITY CONTROLLED BY THE NATIONAL WEATHER SERVICE.
    USE DATA WITH CAUTION...ESPECIALLY DEWPOINT AND RELATIVE
    HUMIDITY OBSERVATIONS.

INZ001>003-010>013-019-020-182300-
NORTHWEST INDIANA

CITY           SKY/WX    TMP DP  RH WIND       PRES   REMARKS
GARY /AIRPORT/ MOSUNNY   45  34  65 NE10      30.35F
LA PORTE +     SUNNY     47  34  61 N12       30.32S
MICHIGAN CITY+ SUNNY     43  32  65 N13G18    30.35S
MONTICELLO +   SUNNY     65  37  35 N10       30.25S
RENSSELAER +   SUNNY     59  32  36 CALM      30.28S
VALPARAISO     SUNNY     48  34  58 N12       30.32S

$$

LMZ046-743>745-182300-
SOUTHERN LAKE MICHIGAN

STATION/POSITION TIME  TEMP WIND        PRES
                       AIR  DIR/SP/G
                 (UTC) (F)  (DEG/KT/KT) (MB)
MICHIGAN CITY    2200   37   10/ 15/ 17   N/A

$$

INZ004-005-014>016-021>024-182300-
NORTH CENTRAL INDIANA

CITY           SKY/WX    TMP DP  RH WIND       PRES   REMARKS
GOSHEN         SUNNY     62  36  37 NW14      30.26S
LOGANSPORT +   SUNNY     64  32  29 N12       30.25S
PERU/GRISSOM   SUNNY     66  39  36 N6        30.24S
ROCHESTER +    SUNNY     64  32  29 NW10      30.27R
SOUTH BEND     SUNNY     54  37  52 N15       30.31S
WARSAW +       SUNNY     61  32  33 NW10      30.26S

$$

INZ006>009-017-018-025>027-182300-
NORTHEAST INDIANA

CITY           SKY/WX    TMP DP  RH WIND       PRES   REMARKS
ANGOLA *+      SUNNY     64  37  36 NW10      30.23F
AUBURN +       SUNNY     64  28  25 W12G17    30.24S
FORT WAYNE     MOSUNNY   67  36  31 NW9       30.24S

$$

INZ028-029-035-036-043>045-051>053-182300-
WEST CENTRAL INDIANA

CITY           SKY/WX    TMP DP  RH WIND       PRES   REMARKS
GREENCASTLE +  MOSUNNY   68  41  37 NW9       30.23F
LAFAYETTE      SUNNY     66  35  31 NW12      30.23F
TERRE HAUTE    SUNNY     69  41  36 VRB7      30.22F

$$

INZ030>032-037>040-046>048-054>057-064-065-182300-
CENTRAL INDIANA

CITY           SKY/WX    TMP DP  RH WIND       PRES   REMARKS
CP ATTERBURY + MOSUNNY   70  37  30 CALM      30.21F
COLUMBUS       SUNNY     68  36  30 CALM      30.22F
INDIANAPOLIS   MOSUNNY   68  39  34 N8        30.22F
-EAGLE CREEK   MOSUNNY   66  39  37 N9        30.22F
KOKOMO *+        N/A    N/A N/A N/A MISG        N/A
MARION +       MOSUNNY   66  35  30 NW10      30.24S
MT COMFORT *+  SUNNY     68  41  37 NW12      30.22F
SHELBYVILLE    MOSUNNY   70  37  29 NW5       30.21F
ZIONSVILLE +   MOSUNNY   68  36  30 W7        30.24S

$$

INZ033-034-041-042-049-050-058-059-182300-
EAST CENTRAL INDIANA

CITY           SKY/WX    TMP DP  RH WIND       PRES   REMARKS
MUNCIE         MOSUNNY   67  39  35 NW15G22   30.22F

$$

INZ060-061-067>069-081>083-085>088-182300-
SOUTHWEST INDIANA

CITY           SKY/WX    TMP DP  RH WIND       PRES   REMARKS
EVANSVILLE     SUNNY     73  39  29 VRB7      30.20F
HUNTINGBURG *+ SUNNY     70  39  32 N6        30.20F
WASHINGTON +   PTSUNNY   69  42  38 NE5       30.21S

$$

INZ062-063-066-070>080-084-089>092-182300-
SOUTH CENTRAL AND SOUTHEAST INDIANA

CITY           SKY/WX    TMP DP  RH WIND       PRES   REMARKS
BLOOMINGTON    PTSUNNY   69  35  28 VRB3      30.21F

$$




USA.gov is the U.S. government's official web portal to all federal, state and local government web resources and services.